Tracking 19562 objects as of 23-Mar-2019
HD Live streaming from Space Station
objects crossing your sky now

GORIZONT 9

Track GORIZONT 9 now!
GORIZONT 9 is classified as:


NORAD ID: 14940
Int'l Code: 1984-041A
Perigee: 35,775.7 km
Apogee: 35,800.6 km
Inclination: 13.4 °
Period: 1,435.8 minutes
Semi major axis: 42159 km
RCS: 3.9811 m2 (large)
Launch date: April 22, 1984
Source: Commonwealth of Independent States (former USSR) (CIS)
Launch site: TYURATAM MISSILE AND SPACE COMPLEX (TTMTR)
aabbcc
Your satellite tracking list
Your tracking list is empty




NASA's NSSDC Master Catalog

Two Line Element Set (TLE):
1 14940U 84041A   19081.81393726  .00000044  00000-0  00000+0 0  9990
2 14940  13.3932 335.0595 0002951 262.3922 290.1665  1.00291820 95516
Source of the keplerian elements: AFSPC